| time (UTC) | temp F | wind direction | speed MPH | gust MPH | rain 1hr in | rain 24hr in | rain mn in | humidity % | barometer mb |
| 20260505010002 | 66 | 183 | 4.0 | 12.0 | 0.00 | 0.00 | 0.00 | 53 | 1010.3 |
| 20260505005002 | 66 | 194 | 8.0 | 24.0 | 0.00 | 0.00 | 0.00 | 53 | 1010.1 |
| 20260505004502 | 66 | 185 | 8.0 | 24.0 | 0.00 | 0.00 | 0.00 | 52 | 1010.1 |
| 20260505004003 | 66 | 179 | 7.0 | 21.0 | 0.00 | 0.00 | 0.00 | 52 | 1009.9 |
| 20260505003502 | 66 | 187 | 8.0 | 21.0 | 0.00 | 0.00 | 0.00 | 53 | 1009.9 |
| 20260505003003 | 66 | 185 | 7.0 | 19.0 | 0.00 | 0.00 | 0.00 | 53 | 1009.8 |
| 20260505002502 | 66 | 187 | 6.0 | 18.0 | 0.00 | 0.00 | 0.00 | 53 | 1009.8 |
| 20260505002002 | 66 | 197 | 6.0 | 18.0 | 0.00 | 0.00 | 0.00 | 53 | 1009.8 |
| 20260505001502 | 66 | 193 | 6.0 | 18.0 | 0.00 | 0.00 | 0.00 | 53 | 1009.8 |
| 20260505001002 | 66 | 185 | 4.0 | 21.0 | 0.00 | 0.00 | 0.00 | 53 | 1009.8 |
| 20260505000501 | 66 | 187 | 6.0 | 21.0 | 0.00 | 0.00 | 0.00 | 53 | 1009.7 |
| 20260505000002 | 66 | 196 | 6.0 | 15.0 | 0.00 | 0.00 | 0.00 | 53 | 1009.8 |
| 20260504235502 | 66 | 205 | 7.0 | 18.0 | 0.00 | 0.00 | 0.00 | 53 | 1009.8 |
| 20260504235003 | 67 | 208 | 7.0 | 18.0 | 0.00 | 0.00 | 0.00 | 54 | 1009.9 |
| 20260504234502 | 67 | 204 | 7.0 | 15.0 | 0.00 | 0.00 | 0.00 | 53 | 1009.9 |
| 20260504234002 | 67 | 205 | 6.0 | 15.0 | 0.00 | 0.00 | 0.00 | 53 | 1009.7 |
| 20260504233501 | 67 | 206 | 4.0 | 13.0 | 0.00 | 0.00 | 0.00 | 52 | 1009.7 |
| 20260504232502 | 67 | 170 | 1.0 | 6.0 | 0.00 | 0.00 | 0.00 | 57 | 1009.6 |
| 20260504232002 | 67 | 172 | 2.0 | 7.0 | 0.00 | 0.00 | 0.00 | 53 | 1009.5 |
| 20260504231003 | 68 | 168 | 3.0 | 10.0 | 0.00 | 0.00 | 0.00 | 53 | 1009.5 |
| 20260504230502 | 68 | 216 | 4.0 | 11.0 | 0.00 | 0.00 | 0.00 | 52 | 1009.7 |
| 20260504230003 | 68 | 239 | 6.0 | 12.0 | 0.00 | 0.00 | 0.00 | 48 | 1010.0 |
| 20260504225502 | 69 | 228 | 4.0 | 12.0 | 0.00 | 0.00 | 0.00 | 49 | 1010.4 |
| 20260504224003 | 71 | 225 | 4.0 | 12.0 | 0.00 | 0.00 | 0.00 | 42 | 1009.8 |
| 20260504223502 | 71 | 212 | 4.0 | 10.0 | 0.00 | 0.00 | 0.00 | 43 | 1009.8 |
| 20260504222501 | 71 | 207 | 7.0 | 18.0 | 0.00 | 0.00 | 0.00 | 40 | 1009.7 |
| 20260504222002 | 71 | 203 | 6.0 | 18.0 | 0.00 | 0.00 | 0.00 | 41 | 1009.5 |
| 20260504221002 | 71 | 189 | 6.0 | 21.0 | 0.00 | 0.00 | 0.00 | 41 | 1009.3 |
| 20260504220502 | 71 | 189 | 6.0 | 21.0 | 0.00 | 0.00 | 0.00 | 42 | 1009.3 |
| 20260504220004 | 71 | 188 | 7.0 | 21.0 | 0.00 | 0.00 | 0.00 | 42 | 1009.3 |
| 20260504215501 | 72 | 192 | 6.0 | 17.0 | 0.00 | 0.00 | 0.00 | 42 | 1009.4 |
| 20260504215002 | 72 | 199 | 7.0 | 21.0 | 0.00 | 0.00 | 0.00 | 41 | 1009.5 |
| 20260504214502 | 72 | 197 | 8.0 | 21.0 | 0.00 | 0.00 | 0.00 | 41 | 1009.4 |
| 20260504213002 | 73 | 195 | 8.0 | 22.0 | 0.00 | 0.00 | 0.00 | 38 | 1009.3 |
| 20260504212501 | 74 | 203 | 7.0 | 20.0 | 0.00 | 0.00 | 0.00 | 40 | 1009.3 |
| 20260504212003 | 73 | 199 | 9.0 | 24.0 | 0.00 | 0.00 | 0.00 | 39 | 1009.3 |
| 20260504211002 | 74 | 202 | 9.0 | 25.0 | 0.00 | 0.00 | 0.00 | 39 | 1009.1 |
| 20260504210501 | 74 | 200 | 8.0 | 25.0 | 0.00 | 0.00 | 0.00 | 38 | 1009.0 |
| 20260504210003 | 75 | 200 | 7.0 | 25.0 | 0.00 | 0.00 | 0.00 | 39 | 1009.2 |
| 20260504205501 | 75 | 204 | 7.0 | 19.0 | 0.00 | 0.00 | 0.00 | 38 | 1009.1 |
| 20260504205003 | 75 | 208 | 7.0 | 18.0 | 0.00 | 0.00 | 0.00 | 37 | 1009.0 |
| 20260504204501 | 75 | 212 | 7.0 | 18.0 | 0.00 | 0.00 | 0.00 | 40 | 1009.0 |
| 20260504204004 | 74 | 202 | 8.0 | 26.0 | 0.00 | 0.00 | 0.00 | 38 | 1009.0 |
| 20260504203502 | 74 | 203 | 9.0 | 26.0 | 0.00 | 0.00 | 0.00 | 40 | 1009.1 |
| 20260504203003 | 74 | 205 | 8.0 | 24.0 | 0.00 | 0.00 | 0.00 | 39 | 1009.2 |
| 20260504202002 | 74 | 194 | 7.0 | 21.0 | 0.00 | 0.00 | 0.00 | 39 | 1009.3 |
| 20260504201502 | 74 | 178 | 6.0 | 18.0 | 0.00 | 0.00 | 0.00 | 41 | 1009.4 |
| 20260504201002 | 74 | 186 | 7.0 | 21.0 | 0.00 | 0.00 | 0.00 | 40 | 1009.6 |
| 20260504200502 | 74 | 194 | 8.0 | 21.0 | 0.00 | 0.00 | 0.00 | 42 | 1009.7 |
| 20260504200003 | 74 | 199 | 8.0 | 21.0 | 0.00 | 0.00 | 0.00 | 39 | 1009.7 |
| 20260504195502 | 74 | 194 | 6.0 | 15.0 | 0.00 | 0.00 | 0.00 | 42 | 1009.9 |
| 20260504194502 | 73 | 194 | 7.0 | 19.0 | 0.00 | 0.00 | 0.00 | 41 | 1009.9 |
| 20260504194002 | 73 | 193 | 8.0 | 19.0 | 0.00 | 0.00 | 0.00 | 39 | 1009.8 |
| 20260504193003 | 72 | 196 | 8.0 | 27.0 | 0.00 | 0.00 | 0.00 | 41 | 1010.1 |
| 20260504192502 | 72 | 195 | 8.0 | 24.0 | 0.00 | 0.00 | 0.00 | 39 | 1010.2 |
| 20260504192003 | 72 | 193 | 8.0 | 19.0 | 0.00 | 0.00 | 0.00 | 43 | 1010.3 |
| 20260504191003 | 73 | 198 | 8.0 | 20.0 | 0.00 | 0.00 | 0.00 | 39 | 1010.2 |
| 20260504190502 | 73 | 207 | 9.0 | 27.0 | 0.00 | 0.00 | 0.00 | 39 | 1010.2 |
| 20260504190003 | 73 | 204 | 9.0 | 27.0 | 0.00 | 0.00 | 0.00 | 36 | 1010.3 |
| 20260504185502 | 74 | 207 | 8.0 | 19.0 | 0.00 | 0.00 | 0.00 | 38 | 1010.2 |
| 20260504185002 | 74 | 221 | 9.0 | 20.0 | 0.00 | 0.00 | 0.00 | 39 | 1010.2 |
| 20260504184502 | 73 | 232 | 11.0 | 20.0 | 0.00 | 0.00 | 0.00 | 36 | 1010.4 |
| 20260504184004 | 73 | 237 | 11.0 | 20.0 | 0.00 | 0.00 | 0.00 | 37 | 1010.3 |
| 20260504183502 | 73 | 225 | 10.0 | 21.0 | 0.00 | 0.00 | 0.00 | 37 | 1010.4 |
| 20260504182002 | 73 | 193 | 7.0 | 19.0 | 0.00 | 0.00 | 0.00 | 38 | 1010.7 |
| 20260504181502 | 73 | 182 | 6.0 | 17.0 | 0.00 | 0.00 | 0.00 | 40 | 1010.7 |
| 20260504181002 | 73 | 191 | 7.0 | 16.0 | 0.00 | 0.00 | 0.00 | 39 | 1010.8 |
| 20260504180502 | 73 | 196 | 8.0 | 16.0 | 0.00 | 0.00 | 0.00 | 39 | 1011.0 |
| 20260504180003 | 73 | 204 | 9.0 | 22.0 | 0.00 | 0.00 | 0.00 | 38 | 1011.2 |
| 20260504175502 | 72 | 210 | 7.0 | 22.0 | 0.00 | 0.00 | 0.00 | 38 | 1011.0 |
| 20260504175002 | 72 | 203 | 7.0 | 21.0 | 0.00 | 0.00 | 0.00 | 40 | 1011.1 |
| 20260504174502 | 72 | 196 | 7.0 | 21.0 | 0.00 | 0.00 | 0.00 | 38 | 1011.2 |
| 20260504174004 | 72 | 193 | 8.0 | 22.0 | 0.00 | 0.00 | 0.00 | 39 | 1011.2 |
| 20260504173502 | 71 | 199 | 9.0 | 24.0 | 0.00 | 0.00 | 0.00 | 38 | 1011.2 |
| 20260504173002 | 72 | 202 | 9.0 | 24.0 | 0.00 | 0.00 | 0.00 | 37 | 1011.3 |
| 20260504172502 | 72 | 202 | 8.0 | 20.0 | 0.00 | 0.00 | 0.00 | 36 | 1011.5 |
| 20260504172002 | 73 | 195 | 7.0 | 20.0 | 0.00 | 0.00 | 0.00 | 39 | 1011.4 |
| 20260504171502 | 72 | 188 | 7.0 | 21.0 | 0.00 | 0.00 | 0.00 | 42 | 1011.5 |
| 20260504171003 | 72 | 192 | 7.0 | 21.0 | 0.00 | 0.00 | 0.00 | 39 | 1011.5 |
| 20260504151002 | 66 | 193 | 6.0 | 13.0 | 0.00 | 0.00 | 0.00 | 41 | 1013.3 |
| 20260504150502 | 65 | 209 | 7.0 | 17.0 | 0.00 | 0.00 | 0.00 | 42 | 1013.3 |
| 20260504141002 | 63 | 205 | 6.0 | 18.0 | 0.00 | 0.00 | 0.00 | 40 | 1013.2 |
| 20260504140502 | 63 | 195 | 4.0 | 18.0 | 0.00 | 0.00 | 0.00 | 45 | 1013.2 |
| 20260504130502 | 60 | 216 | 6.0 | 13.0 | 0.00 | 0.00 | 0.00 | 48 | 1013.8 |
| 20260504110502 | 45 | 244 | 3.0 | 7.0 | 0.00 | 0.00 | 0.00 | 71 | 1014.4 |
| 20260504100502 | 46 | 232 | 1.0 | 3.0 | 0.00 | 0.00 | 0.00 | 65 | 1014.2 |
| 20260504081502 | 46 | 199 | 2.0 | 4.0 | 0.00 | 0.00 | 0.00 | 63 | 1014.4 |
| 20260504081003 | 46 | 198 | 2.0 | 4.0 | 0.00 | 0.00 | 0.00 | 64 | 1014.4 |
| 20260504080502 | 46 | 197 | 2.0 | 4.0 | 0.00 | 0.00 | 0.00 | 64 | 1014.4 |
| 20260504050502 | 46 | 184 | 1.0 | 3.0 | 0.00 | 0.00 | 0.00 | 61 | 1014.9 |
| 20260504050003 | 46 | 184 | 2.0 | 3.0 | 0.00 | 0.00 | 0.00 | 63 | 1015.0 |
| 20260504045503 | 46 | 184 | 2.0 | 3.0 | 0.00 | 0.00 | 0.00 | 62 | 1015.0 |
| 20260504045003 | 47 | 184 | 2.0 | 3.0 | 0.00 | 0.00 | 0.00 | 64 | 1014.9 |
| 20260504044003 | 47 | 184 | 0.0 | 2.0 | 0.00 | 0.00 | 0.00 | 56 | 1014.8 |
| 20260504043502 | 47 | 184 | 1.0 | 3.0 | 0.00 | 0.00 | 0.00 | 55 | 1014.8 |
| 20260504043003 | 47 | 184 | 1.0 | 3.0 | 0.00 | 0.00 | 0.00 | 56 | 1014.5 |
| 20260504042502 | 47 | 184 | 1.0 | 2.0 | 0.00 | 0.00 | 0.00 | 57 | 1014.6 |
| 20260504041003 | 46 | 184 | 2.0 | 3.0 | 0.00 | 0.00 | 0.00 | 56 | 1014.8 |
| 20260504040502 | 46 | 185 | 3.0 | 4.0 | 0.00 | 0.00 | 0.00 | 56 | 1014.9 |
| 20260504040006 | 46 | 185 | 3.0 | 4.0 | 0.00 | 0.00 | 0.00 | 59 | 1014.8 |
| 20260504035502 | 47 | 184 | 3.0 | 4.0 | 0.00 | 0.00 | 0.00 | 58 | 1014.9 |
| 20260504035004 | 47 | 183 | 2.0 | 4.0 | 0.00 | 0.00 | 0.00 | 56 | 1014.8 |
| 20260504034502 | 47 | 183 | 1.0 | 3.0 | 0.00 | 0.00 | 0.00 | 54 | 1014.9 |
| 20260504034003 | 47 | 182 | 1.0 | 3.0 | 0.00 | 0.00 | 0.00 | 55 | 1014.8 |
| 20260504033003 | 47 | 182 | 1.0 | 2.0 | 0.00 | 0.00 | 0.00 | 53 | 1014.5 |
| 20260504032503 | 47 | 182 | 1.0 | 2.0 | 0.00 | 0.00 | 0.00 | 54 | 1014.6 |
| 20260504032003 | 46 | 182 | 1.0 | 2.0 | 0.00 | 0.00 | 0.00 | 52 | 1014.6 |
| 20260504031503 | 46 | 182 | 1.0 | 2.0 | 0.00 | 0.00 | 0.00 | 53 | 1014.8 |
| 20260504031003 | 46 | 182 | 1.0 | 2.0 | 0.00 | 0.00 | 0.00 | 54 | 1014.9 |
| 20260504030502 | 46 | 182 | 1.0 | 3.0 | 0.00 | 0.00 | 0.00 | 54 | 1014.9 |
| 20260504030003 | 46 | 182 | 1.0 | 3.0 | 0.00 | 0.00 | 0.00 | 53 | 1014.8 |
| 20260504025502 | 46 | 182 | 1.0 | 3.0 | 0.00 | 0.00 | 0.00 | 54 | 1014.6 |
| 20260504025003 | 46 | 182 | 0.0 | 2.0 | 0.00 | 0.00 | 0.00 | 53 | 1014.5 |
| 20260504024004 | 46 | 182 | 0.0 | 1.0 | 0.00 | 0.00 | 0.00 | 50 | 1014.7 |
| 20260504023502 | 46 | 182 | 1.0 | 2.0 | 0.00 | 0.00 | 0.00 | 50 | 1014.7 |
| 20260504022503 | 46 | 182 | 0.0 | 2.0 | 0.00 | 0.00 | 0.00 | 50 | 1014.7 |
| 20260504022003 | 47 | 182 | 1.0 | 2.0 | 0.00 | 0.00 | 0.00 | 49 | 1014.5 |
| 20260504021502 | 47 | 193 | 2.0 | 6.0 | 0.00 | 0.00 | 0.00 | 49 | 1014.4 |
| 20260504020003 | 47 | 292 | 1.0 | 4.0 | 0.00 | 0.00 | 0.00 | 49 | 1014.4 |
| 20260504015502 | 48 | 349 | 1.0 | 3.0 | 0.00 | 0.00 | 0.00 | 49 | 1014.4 |
| 20260504014503 | 48 | 350 | 1.0 | 3.0 | 0.00 | 0.00 | 0.00 | 45 | 1014.3 |
| 20260504014002 | 48 | 350 | 1.0 | 2.0 | 0.00 | 0.00 | 0.00 | 46 | 1014.3 |
| 20260504013004 | 48 | 350 | 1.0 | 2.0 | 0.00 | 0.00 | 0.00 | 46 | 1014.1 |
| 20260504012503 | 48 | 350 | 1.0 | 3.0 | 0.00 | 0.00 | 0.00 | 46 | 1014.1 |
| 20260504012003 | 48 | 349 | 1.0 | 3.0 | 0.00 | 0.00 | 0.00 | 46 | 1014.0 |
| 20260504011503 | 48 | 348 | 1.0 | 2.0 | 0.00 | 0.00 | 0.00 | 46 | 1013.9 |
| 20260504010503 | 48 | 342 | 1.0 | 2.0 | 0.00 | 0.00 | 0.00 | 47 | 1013.9 |